Time,TemperatureF,DewpointF,PressureIn,WindDirection,WindDirectionDegrees,WindSpeedMPH,WindSpeedGustMPH,Humidity,HourlyPrecipIn,Conditions,Clouds,dailyrainin,SoftwareType,DateUTC
2013-04-02 00:00:00,60.1,57.5,29.94,NNW,344,0.0,0.0,91,0.00,,,0.03,Wunderground v.1.15,2013-04-02 04:00:00,
2013-04-02 00:05:00,59.9,57.3,29.94,NNW,344,0.0,0.0,91,0.00,,,0.03,Wunderground v.1.15,2013-04-02 04:05:00,
2013-04-02 00:08:00,59.8,57.2,29.94,NNW,344,0.0,0.0,91,0.00,,,0.03,Wunderground v.1.15,2013-04-02 04:08:00,
2013-04-02 00:14:00,59.6,57.3,29.94,NNW,344,0.0,0.0,92,0.00,,,0.03,Wunderground v.1.15,2013-04-02 04:14:00,
2013-04-02 00:20:00,59.3,57.0,29.94,NNW,344,0.0,0.0,92,0.00,,,0.03,Wunderground v.1.15,2013-04-02 04:20:00,
2013-04-02 00:25:00,59.2,56.9,29.94,NNW,344,0.0,0.0,92,0.00,,,0.03,Wunderground v.1.15,2013-04-02 04:25:00,
2013-04-02 00:31:00,59.0,56.4,29.95,NNW,344,0.0,0.0,91,0.00,,,0.03,Wunderground v.1.15,2013-04-02 04:31:00,
2013-04-02 00:37:00,58.7,56.4,29.95,NNW,344,0.0,0.0,92,0.00,,,0.03,Wunderground v.1.15,2013-04-02 04:37:00,
2013-04-02 00:42:00,58.6,56.3,29.95,NNW,344,0.0,0.0,92,0.00,,,0.03,Wunderground v.1.15,2013-04-02 04:42:00,
2013-04-02 00:48:00,58.4,56.1,29.95,NNW,344,0.0,0.0,92,0.00,,,0.03,Wunderground v.1.15,2013-04-02 04:48:00,
2013-04-02 00:54:00,58.1,55.8,29.95,NNW,344,0.0,0.0,92,0.00,,,0.03,Wunderground v.1.15,2013-04-02 04:54:00,
2013-04-02 01:00:00,58.0,56.0,29.95,NNW,344,0.0,0.0,93,0.00,,,0.00,Wunderground v.1.15,2013-04-02 05:00:00,
2013-04-02 01:06:00,57.6,55.6,29.95,NNW,344,0.0,0.0,93,0.00,,,0.00,Wunderground v.1.15,2013-04-02 05:06:00,
2013-04-02 01:11:00,57.5,55.2,29.95,NNW,344,0.0,0.0,92,0.00,,,0.00,Wunderground v.1.15,2013-04-02 05:11:00,
2013-04-02 01:17:00,57.3,55.0,29.96,NNW,344,0.0,0.0,92,0.00,,,0.00,Wunderground v.1.15,2013-04-02 05:17:00,
2013-04-02 01:22:00,57.0,54.7,29.96,NNW,344,0.0,0.0,92,0.00,,,0.00,Wunderground v.1.15,2013-04-02 05:22:00,
2013-04-02 01:27:00,56.7,54.1,29.96,NNW,344,0.0,0.0,91,0.00,,,0.00,Wunderground v.1.15,2013-04-02 05:27:00,
2013-04-02 01:33:00,56.5,53.6,29.96,NNW,344,0.0,0.0,90,0.00,,,0.00,Wunderground v.1.15,2013-04-02 05:33:00,
2013-04-02 01:39:00,56.3,53.1,29.96,NNW,344,0.0,0.0,89,0.00,,,0.00,Wunderground v.1.15,2013-04-02 05:39:00,
2013-04-02 01:44:00,56.2,53.0,29.96,NNW,344,0.0,0.0,89,0.00,,,0.00,Wunderground v.1.15,2013-04-02 05:44:00,
2013-04-02 01:49:00,56.0,52.2,29.96,NNW,344,0.0,0.0,87,0.00,,,0.00,Wunderground v.1.15,2013-04-02 05:49:00,
2013-04-02 01:54:00,55.9,52.1,29.96,NNW,344,0.0,0.0,87,0.00,,,0.00,Wunderground v.1.15,2013-04-02 05:54:00,
2013-04-02 01:59:00,55.7,51.9,29.96,NNW,344,0.0,0.0,87,0.00,,,0.00,Wunderground v.1.15,2013-04-02 05:59:00,
2013-04-02 02:04:00,55.7,51.9,29.97,NNW,344,0.0,0.0,87,0.00,,,0.00,Wunderground v.1.15,2013-04-02 06:04:00,
2013-04-02 02:09:00,55.7,51.9,29.97,NNW,344,0.0,0.0,87,0.00,,,0.00,Wunderground v.1.15,2013-04-02 06:09:00,
2013-04-02 02:14:00,55.6,51.8,29.97,NNW,344,0.0,0.0,87,0.00,,,0.00,Wunderground v.1.15,2013-04-02 06:14:00,
2013-04-02 02:19:00,55.4,51.6,29.97,NNW,344,0.0,0.0,87,0.00,,,0.00,Wunderground v.1.15,2013-04-02 06:19:00,
2013-04-02 02:24:00,55.4,51.6,29.97,NNW,344,0.0,0.0,87,0.00,,,0.00,Wunderground v.1.15,2013-04-02 06:24:00,
2013-04-02 02:29:00,55.3,51.8,29.97,NNW,344,0.0,0.0,88,0.00,,,0.00,Wunderground v.1.15,2013-04-02 06:29:00,
2013-04-02 02:34:00,55.3,51.8,29.97,NNW,344,0.0,0.0,88,0.00,,,0.00,Wunderground v.1.15,2013-04-02 06:34:00,
2013-04-02 02:39:00,55.1,51.3,29.97,NNW,344,0.0,0.0,87,0.00,,,0.00,Wunderground v.1.15,2013-04-02 06:39:00,
2013-04-02 02:44:00,55.0,50.9,29.98,NNW,344,0.0,0.0,86,0.00,,,0.00,Wunderground v.1.15,2013-04-02 06:44:00,
2013-04-02 02:49:00,54.8,50.7,29.98,NNW,344,0.0,0.0,86,0.00,,,0.00,Wunderground v.1.15,2013-04-02 06:49:00,
2013-04-02 02:54:00,54.7,50.6,29.98,NNW,344,0.0,0.0,86,0.00,,,0.00,Wunderground v.1.15,2013-04-02 06:54:00,
2013-04-02 02:59:00,54.5,50.4,29.97,NNW,344,0.0,0.0,86,0.00,,,0.00,Wunderground v.1.15,2013-04-02 06:59:00,
2013-04-02 03:04:00,54.4,50.3,29.97,NNW,344,0.0,0.0,86,0.00,,,0.00,Wunderground v.1.15,2013-04-02 07:04:00,
2013-04-02 03:09:00,54.4,50.3,29.97,NNW,344,0.0,0.0,86,0.00,,,0.00,Wunderground v.1.15,2013-04-02 07:09:00,
2013-04-02 03:14:00,54.2,50.1,29.98,NNW,344,0.0,0.0,86,0.00,,,0.00,Wunderground v.1.15,2013-04-02 07:14:00,
2013-04-02 03:19:00,54.1,50.0,29.98,NNW,344,0.0,0.0,86,0.00,,,0.00,Wunderground v.1.15,2013-04-02 07:19:00,
2013-04-02 03:24:00,53.9,49.8,29.98,NNW,344,0.0,0.0,86,0.00,,,0.00,Wunderground v.1.15,2013-04-02 07:24:00,
2013-04-02 03:29:00,53.9,49.8,29.98,NNW,344,0.0,0.0,86,0.00,,,0.00,Wunderground v.1.15,2013-04-02 07:29:00,
2013-04-02 03:34:00,53.8,49.7,29.98,NNW,344,0.0,0.0,86,0.00,,,0.00,Wunderground v.1.15,2013-04-02 07:34:00,
2013-04-02 03:39:00,53.8,50.0,29.98,NNW,344,0.0,0.0,87,0.00,,,0.00,Wunderground v.1.15,2013-04-02 07:39:00,
2013-04-02 03:44:00,53.6,49.8,29.98,NNW,344,0.0,0.0,87,0.00,,,0.00,Wunderground v.1.15,2013-04-02 07:44:00,
2013-04-02 03:50:00,53.5,49.7,29.98,NNW,344,0.0,0.0,87,0.00,,,0.00,Wunderground v.1.15,2013-04-02 07:50:00,
2013-04-02 03:55:00,53.3,49.5,29.98,NNW,344,0.0,0.0,87,0.00,,,0.00,Wunderground v.1.15,2013-04-02 07:55:00,
2013-04-02 04:00:00,53.2,49.4,29.98,NNW,344,0.0,0.0,87,0.00,,,0.00,Wunderground v.1.15,2013-04-02 08:00:00,
2013-04-02 04:05:00,53.1,49.3,29.98,NNW,344,0.0,0.0,87,0.00,,,0.00,Wunderground v.1.15,2013-04-02 08:05:00,
2013-04-02 04:10:00,52.9,49.1,29.98,NNW,344,0.0,0.0,87,0.00,,,0.00,Wunderground v.1.15,2013-04-02 08:10:00,
2013-04-02 04:15:00,52.9,49.1,29.99,NNW,344,0.0,0.0,87,0.00,,,0.00,Wunderground v.1.15,2013-04-02 08:15:00,
2013-04-02 04:20:00,52.8,49.3,29.99,NNW,344,0.0,0.0,88,0.00,,,0.00,Wunderground v.1.15,2013-04-02 08:20:00,
2013-04-02 04:25:00,52.6,49.1,29.99,NNW,344,0.0,0.0,88,0.00,,,0.00,Wunderground v.1.15,2013-04-02 08:25:00,
2013-04-02 04:30:00,52.5,49.0,30.00,NNW,344,0.0,0.0,88,0.00,,,0.00,Wunderground v.1.15,2013-04-02 08:30:00,
2013-04-02 04:35:00,52.3,48.9,30.00,NNW,344,0.0,0.0,88,0.00,,,0.00,Wunderground v.1.15,2013-04-02 08:35:00,
2013-04-02 04:40:00,52.3,48.9,30.00,NNW,344,0.0,0.0,88,0.00,,,0.00,Wunderground v.1.15,2013-04-02 08:40:00,
2013-04-02 04:45:00,52.2,49.1,30.00,NNW,344,0.0,0.0,89,0.00,,,0.00,Wunderground v.1.15,2013-04-02 08:45:00,
2013-04-02 04:50:00,52.0,48.9,30.00,NNW,344,0.0,0.0,89,0.00,,,0.00,Wunderground v.1.15,2013-04-02 08:50:00,
2013-04-02 04:55:00,52.0,48.9,30.00,NNW,344,0.0,0.0,89,0.00,,,0.00,Wunderground v.1.15,2013-04-02 08:55:00,
2013-04-02 05:00:00,51.9,49.1,30.00,NNW,344,0.0,0.0,90,0.00,,,0.00,Wunderground v.1.15,2013-04-02 09:00:00,
2013-04-02 05:05:00,51.7,48.9,30.00,NNW,344,0.0,0.0,90,0.00,,,0.00,Wunderground v.1.15,2013-04-02 09:05:00,
2013-04-02 05:10:00,51.7,48.9,30.00,NNW,344,0.0,0.0,90,0.00,,,0.00,Wunderground v.1.15,2013-04-02 09:10:00,
2013-04-02 05:15:00,51.6,48.8,30.01,NNW,344,0.0,0.0,90,0.00,,,0.00,Wunderground v.1.15,2013-04-02 09:15:00,
2013-04-02 05:20:00,51.4,48.6,30.01,NNW,344,0.0,0.0,90,0.00,,,0.00,Wunderground v.1.15,2013-04-02 09:20:00,
2013-04-02 05:26:00,51.4,48.6,30.01,NNW,344,0.0,0.0,90,0.00,,,0.00,Wunderground v.1.15,2013-04-02 09:26:00,
2013-04-02 05:31:00,51.3,48.5,30.01,NNW,344,0.0,0.0,90,0.00,,,0.00,Wunderground v.1.15,2013-04-02 09:31:00,
2013-04-02 05:36:00,51.1,48.3,30.01,NNW,344,0.0,0.0,90,0.00,,,0.00,Wunderground v.1.15,2013-04-02 09:36:00,
2013-04-02 05:41:00,51.0,48.2,30.01,NNW,344,0.0,0.0,90,0.00,,,0.00,Wunderground v.1.15,2013-04-02 09:41:00,
2013-04-02 05:46:00,51.0,48.5,30.01,NNW,344,0.0,0.0,91,0.00,,,0.00,Wunderground v.1.15,2013-04-02 09:46:00,
2013-04-02 05:51:00,50.8,48.3,30.01,NNW,344,0.0,0.0,91,0.00,,,0.00,Wunderground v.1.15,2013-04-02 09:51:00,
2013-04-02 05:56:00,50.7,48.2,30.01,NNW,344,0.0,0.0,91,0.00,,,0.00,Wunderground v.1.15,2013-04-02 09:56:00,
2013-04-02 06:01:00,50.5,48.0,30.03,NNW,344,0.0,0.0,91,0.00,,,0.00,Wunderground v.1.15,2013-04-02 10:01:00,
2013-04-02 06:06:00,50.5,48.0,30.03,NNW,344,0.0,0.0,91,0.00,,,0.00,Wunderground v.1.15,2013-04-02 10:06:00,
2013-04-02 06:11:00,50.4,47.9,30.03,NNW,344,0.0,0.0,91,0.00,,,0.00,Wunderground v.1.15,2013-04-02 10:11:00,
2013-04-02 06:16:00,50.2,47.7,30.03,NNW,344,0.0,0.0,91,0.00,,,0.00,Wunderground v.1.15,2013-04-02 10:16:00,
2013-04-02 06:21:00,50.1,47.6,30.03,NNW,344,0.0,0.0,91,0.00,,,0.00,Wunderground v.1.15,2013-04-02 10:21:00,
2013-04-02 06:26:00,50.1,47.9,30.03,NNW,344,0.0,0.0,92,0.00,,,0.00,Wunderground v.1.15,2013-04-02 10:26:00,
2013-04-02 06:31:00,49.9,47.4,30.04,NNW,344,0.0,0.0,91,0.00,,,0.00,Wunderground v.1.15,2013-04-02 10:31:00,
2013-04-02 06:36:00,49.8,47.6,30.04,NNW,344,0.0,0.0,92,0.00,,,0.00,Wunderground v.1.15,2013-04-02 10:36:00,
2013-04-02 06:41:00,49.8,47.6,30.04,NNW,344,0.0,0.0,92,0.00,,,0.00,Wunderground v.1.15,2013-04-02 10:41:00,
2013-04-02 06:46:00,49.6,47.4,30.05,NNW,344,0.0,0.0,92,0.00,,,0.00,Wunderground v.1.15,2013-04-02 10:46:00,
2013-04-02 06:51:00,49.6,47.4,30.05,NNW,344,0.0,0.0,92,0.00,,,0.00,Wunderground v.1.15,2013-04-02 10:51:00,
2013-04-02 06:57:00,49.5,47.3,30.05,NNW,344,0.0,0.0,92,0.00,,,0.00,Wunderground v.1.15,2013-04-02 10:57:00,
2013-04-02 07:02:00,49.5,47.3,30.06,NNW,344,0.0,0.0,92,0.00,,,0.00,Wunderground v.1.15,2013-04-02 11:02:00,
2013-04-02 07:07:00,49.4,47.2,30.06,NNW,344,0.0,0.0,92,0.00,,,0.00,Wunderground v.1.15,2013-04-02 11:07:00,
2013-04-02 07:12:00,49.4,47.2,30.06,NNW,344,0.0,0.0,92,0.00,,,0.00,Wunderground v.1.15,2013-04-02 11:12:00,
2013-04-02 07:17:00,49.2,47.0,30.06,NNW,344,0.0,0.0,92,0.00,,,0.00,Wunderground v.1.15,2013-04-02 11:17:00,
2013-04-02 07:22:00,49.2,47.0,30.06,NNW,344,0.0,0.0,92,0.00,,,0.00,Wunderground v.1.15,2013-04-02 11:22:00,
2013-04-02 07:27:00,49.2,47.0,30.06,NNW,344,0.0,0.0,92,0.00,,,0.00,Wunderground v.1.15,2013-04-02 11:27:00,
2013-04-02 07:32:00,49.2,47.0,30.07,NNW,344,0.0,0.0,92,0.00,,,0.00,Wunderground v.1.15,2013-04-02 11:32:00,
2013-04-02 07:37:00,49.1,47.2,30.07,NNW,344,0.0,0.0,93,0.00,,,0.00,Wunderground v.1.15,2013-04-02 11:37:00,
2013-04-02 07:42:00,49.1,47.2,30.07,NNW,344,0.0,0.0,93,0.00,,,0.00,Wunderground v.1.15,2013-04-02 11:42:00,
2013-04-02 07:47:00,49.2,47.3,30.08,NNW,344,0.0,0.0,93,0.00,,,0.00,Wunderground v.1.15,2013-04-02 11:47:00,
2013-04-02 07:52:00,49.4,47.5,30.08,NNW,344,0.0,0.0,93,0.00,,,0.00,Wunderground v.1.15,2013-04-02 11:52:00,
2013-04-02 07:57:00,49.5,47.8,30.08,NNW,344,0.0,0.0,94,0.00,,,0.00,Wunderground v.1.15,2013-04-02 11:57:00,
2013-04-02 08:02:00,49.8,48.1,30.09,NNW,344,0.0,0.0,94,0.00,,,0.00,Wunderground v.1.15,2013-04-02 12:02:00,
2013-04-02 08:07:00,50.4,49.0,30.09,NNW,344,0.0,0.0,95,0.00,,,0.00,Wunderground v.1.15,2013-04-02 12:07:00,
2013-04-02 08:12:00,50.8,49.1,30.09,NNW,344,0.0,0.0,94,0.00,,,0.00,Wunderground v.1.15,2013-04-02 12:12:00,
2013-04-02 08:17:00,51.4,49.2,30.10,NNW,344,0.0,0.0,92,0.00,,,0.00,Wunderground v.1.15,2013-04-02 12:17:00,
2013-04-02 08:22:00,52.2,49.1,30.10,NNW,344,0.0,0.0,89,0.00,,,0.00,Wunderground v.1.15,2013-04-02 12:22:00,
2013-04-02 08:27:00,52.9,48.5,30.10,ESE,122,2.0,2.0,85,0.00,,,0.00,Wunderground v.1.15,2013-04-02 12:27:00,
2013-04-02 08:32:00,53.9,47.9,30.11,NNW,329,0.0,1.0,80,0.00,,,0.00,Wunderground v.1.15,2013-04-02 12:32:00,
2013-04-02 08:37:00,55.0,47.9,30.11,SE,142,0.0,2.0,77,0.00,,,0.00,Wunderground v.1.15,2013-04-02 12:37:00,
2013-04-02 08:42:00,55.9,48.1,30.11,NW,321,1.0,2.0,75,0.00,,,0.00,Wunderground v.1.15,2013-04-02 12:42:00,
2013-04-02 08:47:00,56.6,48.0,30.10,ESE,108,1.0,5.0,73,0.00,,,0.00,Wunderground v.1.15,2013-04-02 12:47:00,
2013-04-02 08:52:00,57.2,47.9,30.10,ESE,104,1.0,3.0,71,0.00,,,0.00,Wunderground v.1.15,2013-04-02 12:52:00,
2013-04-02 08:57:00,57.8,48.1,30.10,South,174,2.0,3.0,70,0.00,,,0.00,Wunderground v.1.15,2013-04-02 12:57:00,
2013-04-02 09:02:00,58.4,48.3,30.11,SSE,159,0.0,3.0,69,0.00,,,0.00,Wunderground v.1.15,2013-04-02 13:02:00,
2013-04-02 09:07:00,58.9,48.7,30.11,WSW,250,2.0,3.0,69,0.00,,,0.00,Wunderground v.1.15,2013-04-02 13:07:00,
2013-04-02 09:12:00,59.3,48.3,30.11,East,101,2.0,2.0,67,0.00,,,0.00,Wunderground v.1.15,2013-04-02 13:12:00,
2013-04-02 09:17:00,59.6,47.4,30.12,SSE,147,0.0,6.0,64,0.00,,,0.00,Wunderground v.1.15,2013-04-02 13:17:00,
2013-04-02 09:22:00,59.9,48.1,30.12,SE,137,0.0,6.0,65,0.00,,,0.00,Wunderground v.1.15,2013-04-02 13:22:00,
2013-04-02 09:27:00,60.2,48.4,30.12,SE,129,1.0,6.0,65,0.00,,,0.00,Wunderground v.1.15,2013-04-02 13:27:00,
2013-04-02 09:33:00,60.5,48.3,30.12,SE,129,1.0,5.0,64,0.00,,,0.00,Wunderground v.1.15,2013-04-02 13:33:00,
2013-04-02 09:38:00,60.5,47.8,30.12,ENE,71,1.0,7.0,63,0.00,,,0.00,Wunderground v.1.15,2013-04-02 13:38:00,
2013-04-02 09:43:00,60.7,48.0,30.12,WSW,249,1.0,3.0,63,0.00,,,0.00,Wunderground v.1.15,2013-04-02 13:43:00,
2013-04-02 09:48:00,60.9,48.2,30.12,East,81,2.0,4.0,63,0.00,,,0.00,Wunderground v.1.15,2013-04-02 13:48:00,
2013-04-02 09:53:00,61.2,48.9,30.12,SE,142,2.0,2.0,64,0.00,,,0.00,Wunderground v.1.15,2013-04-02 13:53:00,
2013-04-02 09:58:00,61.3,48.2,30.12,WNW,294,0.0,7.0,62,0.00,,,0.00,Wunderground v.1.15,2013-04-02 13:58:00,
2013-04-02 10:03:00,61.6,48.0,30.13,East,88,0.0,4.0,61,0.00,,,0.00,Wunderground v.1.15,2013-04-02 14:03:00,
2013-04-02 10:08:00,61.8,48.6,30.13,ESE,119,3.0,6.0,62,0.00,,,0.00,Wunderground v.1.15,2013-04-02 14:08:00,
2013-04-02 10:13:00,62.1,48.9,30.13,SE,140,0.0,2.0,62,0.00,,,0.00,Wunderground v.1.15,2013-04-02 14:13:00,
2013-04-02 10:18:00,62.6,49.4,30.14,SE,136,0.0,3.0,62,0.00,,,0.00,Wunderground v.1.15,2013-04-02 14:18:00,
2013-04-02 10:23:00,62.9,49.2,30.14,South,169,2.0,6.0,61,0.00,,,0.00,Wunderground v.1.15,2013-04-02 14:23:00,
2013-04-02 10:28:00,63.1,49.0,30.14,ESE,115,5.0,6.0,60,0.00,,,0.00,Wunderground v.1.15,2013-04-02 14:28:00,
2013-04-02 10:33:00,63.2,48.6,30.13,ESE,111,3.0,7.0,59,0.00,,,0.00,Wunderground v.1.15,2013-04-02 14:33:00,
2013-04-02 10:38:00,63.1,49.0,30.13,ESE,116,2.0,7.0,60,0.00,,,0.00,Wunderground v.1.15,2013-04-02 14:38:00,
2013-04-02 10:43:00,63.2,48.6,30.13,SSE,150,0.0,9.0,59,0.00,,,0.00,Wunderground v.1.15,2013-04-02 14:43:00,
2013-04-02 10:48:00,63.2,48.2,30.13,SSE,166,0.0,9.0,58,0.00,,,0.00,Wunderground v.1.15,2013-04-02 14:48:00,
2013-04-02 10:53:00,63.2,48.2,30.13,SSE,150,2.0,7.0,58,0.00,,,0.00,Wunderground v.1.15,2013-04-02 14:53:00,
2013-04-02 10:58:00,63.7,49.1,30.13,SSE,156,3.0,7.0,59,0.00,,,0.00,Wunderground v.1.15,2013-04-02 14:58:00,
2013-04-02 11:03:00,63.9,48.4,30.13,SE,137,2.0,7.0,57,0.00,,,0.00,Wunderground v.1.15,2013-04-02 15:03:00,
2013-04-02 11:08:00,63.7,48.2,30.13,SSE,147,0.0,9.0,57,0.00,,,0.00,Wunderground v.1.15,2013-04-02 15:08:00,
2013-04-02 11:13:00,63.9,47.9,30.13,East,97,0.0,6.0,56,0.00,,,0.00,Wunderground v.1.15,2013-04-02 15:13:00,
2013-04-02 11:19:00,64.0,48.5,30.13,SE,142,0.0,6.0,57,0.00,,,0.00,Wunderground v.1.15,2013-04-02 15:19:00,
2013-04-02 11:24:00,64.2,47.7,30.13,ENE,68,0.0,6.0,55,0.00,,,0.00,Wunderground v.1.15,2013-04-02 15:24:00,
2013-04-02 11:29:00,64.2,46.7,30.13,East,81,1.0,7.0,53,0.00,,,0.00,Wunderground v.1.15,2013-04-02 15:29:00,
2013-04-02 11:35:00,64.5,46.0,30.13,SSE,156,1.0,10.0,51,0.00,,,0.00,Wunderground v.1.15,2013-04-02 15:35:00,
2013-04-02 11:40:00,64.3,45.3,30.13,SE,146,9.0,9.0,50,0.00,,,0.00,Wunderground v.1.15,2013-04-02 15:40:00,
2013-04-02 11:45:00,64.3,45.3,30.13,ESE,119,3.0,9.0,50,0.00,,,0.00,Wunderground v.1.15,2013-04-02 15:45:00,
2013-04-02 11:50:00,64.3,44.2,30.13,West,259,0.0,2.0,48,0.00,,,0.00,Wunderground v.1.15,2013-04-02 15:50:00,
2013-04-02 11:55:00,64.5,44.4,30.13,East,85,5.0,6.0,48,0.00,,,0.00,Wunderground v.1.15,2013-04-02 15:55:00,
2013-04-02 12:00:00,64.5,44.9,30.13,East,80,4.0,6.0,49,0.00,,,0.00,Wunderground v.1.15,2013-04-02 16:00:00,
2013-04-02 12:05:00,64.7,44.5,30.13,SSW,195,3.0,7.0,48,0.00,,,0.00,Wunderground v.1.15,2013-04-02 16:05:00,
2013-04-02 12:10:00,64.7,44.0,30.13,SSE,152,0.0,3.0,47,0.00,,,0.00,Wunderground v.1.15,2013-04-02 16:10:00,
2013-04-02 12:15:00,64.5,43.3,30.13,SSE,157,2.0,11.0,46,0.00,,,0.00,Wunderground v.1.15,2013-04-02 16:15:00,
2013-04-02 12:21:00,64.3,43.1,30.13,SE,140,1.0,7.0,46,0.00,,,0.00,Wunderground v.1.15,2013-04-02 16:21:00,
2013-04-02 12:26:00,64.5,43.3,30.13,WNW,289,1.0,7.0,46,0.00,,,0.00,Wunderground v.1.15,2013-04-02 16:26:00,
2013-04-02 12:31:00,64.5,43.3,30.13,NE,43,5.0,5.0,46,0.00,,,0.00,Wunderground v.1.15,2013-04-02 16:31:00,
2013-04-02 12:36:00,64.5,43.3,30.13,SSE,147,2.0,7.0,46,0.00,,,0.00,Wunderground v.1.15,2013-04-02 16:36:00,
2013-04-02 12:41:00,64.8,44.6,30.13,ENE,64,3.0,3.0,48,0.00,,,0.00,Wunderground v.1.15,2013-04-02 16:41:00,
2013-04-02 12:46:00,65.0,45.4,30.13,SSE,156,1.0,7.0,49,0.00,,,0.00,Wunderground v.1.15,2013-04-02 16:46:00,
2013-04-02 12:51:00,65.2,45.0,30.13,SSE,156,3.0,12.0,48,0.00,,,0.00,Wunderground v.1.15,2013-04-02 16:51:00,
2013-04-02 12:56:00,65.2,44.5,30.13,SE,137,5.0,12.0,47,0.00,,,0.00,Wunderground v.1.15,2013-04-02 16:56:00,
2013-04-02 13:02:00,65.2,43.3,30.12,SSE,156,3.0,12.0,45,0.00,,,0.00,Wunderground v.1.15,2013-04-02 17:02:00,
2013-04-02 13:07:00,64.7,43.4,30.12,ESE,102,7.0,12.0,46,0.00,,,0.00,Wunderground v.1.15,2013-04-02 17:07:00,
2013-04-02 13:12:00,64.0,42.8,30.12,South,169,2.0,8.0,46,0.00,,,0.00,Wunderground v.1.15,2013-04-02 17:12:00,
2013-04-02 13:17:00,63.7,42.5,30.12,ESE,121,2.0,10.0,46,0.00,,,0.00,Wunderground v.1.15,2013-04-02 17:17:00,
2013-04-02 13:22:00,63.7,42.5,30.12,East,89,10.0,12.0,46,0.00,,,0.00,Wunderground v.1.15,2013-04-02 17:22:00,
2013-04-02 13:27:00,63.5,41.8,30.12,South,180,5.0,13.0,45,0.00,,,0.00,Wunderground v.1.15,2013-04-02 17:27:00,
2013-04-02 13:32:00,63.5,41.8,30.12,ENE,70,1.0,6.0,45,0.00,,,0.00,Wunderground v.1.15,2013-04-02 17:32:00,
2013-04-02 13:37:00,63.5,42.3,30.12,SE,126,6.0,12.0,46,0.00,,,0.00,Wunderground v.1.15,2013-04-02 17:37:00,
2013-04-02 13:42:00,63.5,41.8,30.12,ENE,64,3.0,8.0,45,0.00,,,0.00,Wunderground v.1.15,2013-04-02 17:42:00,
2013-04-02 13:49:00,63.7,43.6,30.11,West,265,0.0,8.0,48,0.00,,,0.00,Wunderground v.1.15,2013-04-02 17:49:00,
2013-04-02 13:54:00,63.5,44.0,30.11,East,91,3.0,11.0,49,0.00,,,0.00,Wunderground v.1.15,2013-04-02 17:54:00,
2013-04-02 14:00:00,63.1,44.7,30.11,East,80,3.0,5.0,51,0.00,,,0.00,Wunderground v.1.15,2013-04-02 18:00:00,
2013-04-02 14:05:00,63.1,44.2,30.11,SW,222,0.0,7.0,50,0.00,,,0.00,Wunderground v.1.15,2013-04-02 18:05:00,
2013-04-02 14:10:00,63.1,43.6,30.11,South,178,2.0,2.0,49,0.00,,,0.00,Wunderground v.1.15,2013-04-02 18:10:00,
2013-04-02 14:15:00,62.7,43.8,30.10,SE,133,1.0,10.0,50,0.00,,,0.00,Wunderground v.1.15,2013-04-02 18:15:00,
2013-04-02 14:20:00,62.4,43.5,30.10,SSE,161,3.0,9.0,50,0.00,,,0.00,Wunderground v.1.15,2013-04-02 18:20:00,
2013-04-02 14:25:00,62.4,44.0,30.10,ESE,109,1.0,9.0,51,0.00,,,0.00,Wunderground v.1.15,2013-04-02 18:25:00,
2013-04-02 14:30:00,62.1,43.7,30.10,SE,137,2.0,3.0,51,0.00,,,0.00,Wunderground v.1.15,2013-04-02 18:30:00,
2013-04-02 14:35:00,61.8,43.5,30.10,ESE,105,5.0,11.0,51,0.00,,,0.00,Wunderground v.1.15,2013-04-02 18:35:00,
2013-04-02 14:40:00,61.3,43.5,30.10,ESE,111,3.0,5.0,52,0.00,,,0.00,Wunderground v.1.15,2013-04-02 18:40:00,
2013-04-02 14:45:00,61.3,44.5,30.09,SSE,156,1.0,11.0,54,0.00,,,0.00,Wunderground v.1.15,2013-04-02 18:45:00,
2013-04-02 14:51:00,61.5,43.2,30.09,SSW,212,2.0,7.0,51,0.00,,,0.00,Wunderground v.1.15,2013-04-02 18:51:00,
2013-04-02 14:56:00,61.3,43.5,30.09,SE,137,3.0,8.0,52,0.00,,,0.00,Wunderground v.1.15,2013-04-02 18:56:00,
2013-04-02 15:01:00,61.5,43.7,30.08,East,89,1.0,5.0,52,0.00,,,0.00,Wunderground v.1.15,2013-04-02 19:01:00,
2013-04-02 15:07:00,61.5,44.7,30.08,SE,137,1.0,7.0,54,0.00,,,0.00,Wunderground v.1.15,2013-04-02 19:07:00,
2013-04-02 15:12:00,61.5,44.7,30.08,ESE,109,6.0,12.0,54,0.00,,,0.00,Wunderground v.1.15,2013-04-02 19:12:00,
2013-04-02 15:17:00,61.0,45.2,30.08,SSE,157,8.0,12.0,56,0.00,,,0.00,Wunderground v.1.15,2013-04-02 19:17:00,
2013-04-02 15:22:00,60.5,44.2,30.08,SSE,153,2.0,12.0,55,0.00,,,0.00,Wunderground v.1.15,2013-04-02 19:22:00,
2013-04-02 15:27:00,60.7,44.9,30.08,SE,128,6.0,12.0,56,0.00,,,0.00,Wunderground v.1.15,2013-04-02 19:27:00,
2013-04-02 15:32:00,60.5,44.7,30.08,SSE,154,1.0,10.0,56,0.00,,,0.00,Wunderground v.1.15,2013-04-02 19:32:00,
2013-04-02 15:37:00,60.5,44.7,30.08,South,169,1.0,10.0,56,0.00,,,0.00,Wunderground v.1.15,2013-04-02 19:37:00,
2013-04-02 15:43:00,60.4,45.1,30.08,SSE,166,2.0,8.0,57,0.00,,,0.00,Wunderground v.1.15,2013-04-02 19:43:00,
2013-04-02 15:48:00,60.2,45.4,30.08,South,191,5.0,10.0,58,0.00,,,0.00,Wunderground v.1.15,2013-04-02 19:48:00,
2013-04-02 15:53:00,60.1,45.7,30.08,SE,130,0.0,7.0,59,0.00,,,0.00,Wunderground v.1.15,2013-04-02 19:53:00,
2013-04-02 15:58:00,60.2,45.8,30.08,South,173,5.0,8.0,59,0.00,,,0.00,Wunderground v.1.15,2013-04-02 19:58:00,
2013-04-02 16:03:00,60.2,45.4,30.08,ESE,116,1.0,11.0,58,0.00,,,0.00,Wunderground v.1.15,2013-04-02 20:03:00,
2013-04-02 16:08:00,60.1,44.8,30.08,ESE,119,1.0,11.0,57,0.00,,,0.00,Wunderground v.1.15,2013-04-02 20:08:00,
2013-04-02 16:13:00,59.9,45.5,30.08,ENE,74,3.0,12.0,59,0.00,,,0.00,Wunderground v.1.15,2013-04-02 20:13:00,
2013-04-02 16:19:00,59.8,45.0,30.08,ESE,112,3.0,12.0,58,0.00,,,0.00,Wunderground v.1.15,2013-04-02 20:19:00,
2013-04-02 16:24:00,59.6,44.8,30.08,North,1,2.0,8.0,58,0.00,,,0.00,Wunderground v.1.15,2013-04-02 20:24:00,
2013-04-02 16:29:00,59.6,45.2,30.08,ESE,118,1.0,8.0,59,0.00,,,0.00,Wunderground v.1.15,2013-04-02 20:29:00,
2013-04-02 16:34:00,59.6,45.2,30.08,WSW,245,2.0,12.0,59,0.00,,,0.00,Wunderground v.1.15,2013-04-02 20:34:00,
2013-04-02 16:39:00,59.5,45.6,30.08,SW,215,1.0,12.0,60,0.00,,,0.00,Wunderground v.1.15,2013-04-02 20:39:00,
2013-04-02 16:44:00,59.5,44.7,30.08,SSE,160,4.0,10.0,58,0.00,,,0.00,Wunderground v.1.15,2013-04-02 20:44:00,
2013-04-02 16:49:00,59.6,45.2,30.08,East,98,2.0,10.0,59,0.00,,,0.00,Wunderground v.1.15,2013-04-02 20:49:00,
2013-04-02 16:55:00,59.8,45.4,30.08,NNE,29,2.0,7.0,59,0.00,,,0.00,Wunderground v.1.15,2013-04-02 20:55:00,
2013-04-02 17:00:00,59.8,45.4,30.08,South,188,2.0,4.0,59,0.00,,,0.00,Wunderground v.1.15,2013-04-02 21:00:00,
2013-04-02 17:05:00,59.8,45.9,30.08,SE,139,2.0,8.0,60,0.00,,,0.00,Wunderground v.1.15,2013-04-02 21:05:00,
2013-04-02 17:10:00,59.8,46.7,30.08,SSE,160,1.0,3.0,62,0.00,,,0.00,Wunderground v.1.15,2013-04-02 21:10:00,
2013-04-02 17:15:00,59.9,46.8,30.08,South,185,2.0,7.0,62,0.00,,,0.00,Wunderground v.1.15,2013-04-02 21:15:00,
2013-04-02 17:20:00,59.9,46.8,30.08,SSW,204,2.0,3.0,62,0.00,,,0.00,Wunderground v.1.15,2013-04-02 21:20:00,
2013-04-02 17:26:00,59.8,46.7,30.08,SSE,166,0.0,8.0,62,0.00,,,0.00,Wunderground v.1.15,2013-04-02 21:26:00,
2013-04-02 17:31:00,59.6,47.0,30.08,SE,132,2.0,5.0,63,0.00,,,0.00,Wunderground v.1.15,2013-04-02 21:31:00,
2013-04-02 17:36:00,59.5,46.9,30.08,East,97,6.0,7.0,63,0.00,,,0.00,Wunderground v.1.15,2013-04-02 21:36:00,
2013-04-02 17:41:00,59.3,47.1,30.08,ESE,102,5.0,6.0,64,0.00,,,0.00,Wunderground v.1.15,2013-04-02 21:41:00,
2013-04-02 17:46:00,59.2,47.0,30.09,SE,142,2.0,8.0,64,0.00,,,0.00,Wunderground v.1.15,2013-04-02 21:46:00,
2013-04-02 17:52:00,59.2,47.4,30.09,ESE,116,5.0,7.0,65,0.00,,,0.00,Wunderground v.1.15,2013-04-02 21:52:00,
2013-04-02 17:57:00,59.0,47.2,30.09,SW,225,0.0,7.0,65,0.00,,,0.00,Wunderground v.1.15,2013-04-02 21:57:00,
2013-04-02 18:02:00,59.0,47.7,30.09,SSE,156,1.0,7.0,66,0.00,,,0.00,Wunderground v.1.15,2013-04-02 22:02:00,
2013-04-02 18:07:00,59.0,47.7,30.09,East,82,1.0,7.0,66,0.00,,,0.00,Wunderground v.1.15,2013-04-02 22:07:00,
2013-04-02 18:12:00,59.0,48.1,30.09,SSE,167,1.0,6.0,67,0.00,,,0.00,Wunderground v.1.15,2013-04-02 22:12:00,
2013-04-02 18:17:00,59.2,48.6,30.08,ESE,108,1.0,6.0,68,0.00,,,0.00,Wunderground v.1.15,2013-04-02 22:17:00,
2013-04-02 18:22:00,59.2,48.6,30.08,ESE,104,0.0,2.0,68,0.00,,,0.00,Wunderground v.1.15,2013-04-02 22:22:00,
2013-04-02 18:27:00,59.0,48.8,30.08,SE,132,5.0,7.0,69,0.00,,,0.00,Wunderground v.1.15,2013-04-02 22:27:00,
2013-04-02 18:32:00,59.0,49.2,30.08,ENE,71,1.0,2.0,70,0.00,,,0.00,Wunderground v.1.15,2013-04-02 22:32:00,
2013-04-02 18:38:00,59.0,49.6,30.08,East,81,2.0,6.0,71,0.00,,,0.00,Wunderground v.1.15,2013-04-02 22:38:00,
2013-04-02 18:43:00,59.0,49.6,30.08,South,191,2.0,7.0,71,0.00,,,0.00,Wunderground v.1.15,2013-04-02 22:43:00,
2013-04-02 18:48:00,58.9,49.5,30.08,ESE,104,1.0,7.0,71,0.00,,,0.00,Wunderground v.1.15,2013-04-02 22:48:00,
2013-04-02 18:53:00,58.9,49.5,30.08,ESE,109,3.0,3.0,71,0.00,,,0.00,Wunderground v.1.15,2013-04-02 22:53:00,
2013-04-02 18:58:00,58.9,49.5,30.08,East,88,2.0,7.0,71,0.00,,,0.00,Wunderground v.1.15,2013-04-02 22:58:00,
2013-04-02 19:04:00,58.7,49.7,30.08,ESE,108,0.0,5.0,72,0.00,,,0.00,Wunderground v.1.15,2013-04-02 23:04:00,
2013-04-02 19:09:00,58.7,49.7,30.08,ESE,102,2.0,5.0,72,0.00,,,0.00,Wunderground v.1.15,2013-04-02 23:09:00,
2013-04-02 19:14:00,58.6,49.6,30.08,NE,44,1.0,5.0,72,0.00,,,0.00,Wunderground v.1.15,2013-04-02 23:14:00,
2013-04-02 19:19:00,58.6,50.3,30.08,SSE,152,3.0,5.0,74,0.00,,,0.00,Wunderground v.1.15,2013-04-02 23:19:00,
2013-04-02 19:24:00,58.4,50.1,30.08,East,89,0.0,3.0,74,0.00,,,0.00,Wunderground v.1.15,2013-04-02 23:24:00,
2013-04-02 19:29:00,58.4,50.5,30.08,East,101,1.0,4.0,75,0.00,,,0.00,Wunderground v.1.15,2013-04-02 23:29:00,
2013-04-02 19:34:00,58.3,50.4,30.08,ESE,122,1.0,3.0,75,0.00,,,0.00,Wunderground v.1.15,2013-04-02 23:34:00,
2013-04-02 19:39:00,58.1,50.2,30.08,ESE,102,0.0,3.0,75,0.00,,,0.00,Wunderground v.1.15,2013-04-02 23:39:00,
2013-04-02 19:44:00,58.1,50.6,30.09,SSE,149,1.0,2.0,76,0.00,,,0.00,Wunderground v.1.15,2013-04-02 23:44:00,
2013-04-02 19:49:00,58.0,50.5,30.09,SSE,147,2.0,2.0,76,0.00,,,0.00,Wunderground v.1.15,2013-04-02 23:49:00,
2013-04-02 19:54:00,58.0,50.8,30.09,SSE,149,0.0,3.0,77,0.00,,,0.00,Wunderground v.1.15,2013-04-02 23:54:00,
2013-04-02 19:59:00,57.8,51.0,30.09,SSE,156,0.0,3.0,78,0.00,,,0.00,Wunderground v.1.15,2013-04-02 23:59:00,
2013-04-02 20:04:00,57.6,50.8,30.09,SSE,156,0.0,0.0,78,0.00,,,0.00,Wunderground v.1.15,2013-04-03 00:04:00,
2013-04-02 20:09:00,57.6,51.1,30.09,SSE,156,0.0,1.0,79,0.00,,,0.00,Wunderground v.1.15,2013-04-03 00:09:00,
2013-04-02 20:15:00,57.5,51.0,30.09,SSE,156,0.0,0.0,79,0.00,,,0.00,Wunderground v.1.15,2013-04-03 00:15:00,
2013-04-02 20:20:00,57.3,51.2,30.09,SSE,156,0.0,0.0,80,0.00,,,0.00,Wunderground v.1.15,2013-04-03 00:20:00,
2013-04-02 20:26:00,57.2,51.1,30.09,SSE,156,0.0,0.0,80,0.00,,,0.00,Wunderground v.1.15,2013-04-03 00:26:00,
2013-04-02 20:31:00,57.2,51.4,30.09,SSE,156,0.0,0.0,81,0.00,,,0.00,Wunderground v.1.15,2013-04-03 00:31:00,
2013-04-02 20:37:00,57.0,51.2,30.09,SSE,156,0.0,0.0,81,0.00,,,0.00,Wunderground v.1.15,2013-04-03 00:37:00,
2013-04-02 20:42:00,56.9,51.5,30.09,SSE,156,0.0,1.0,82,0.00,,,0.00,Wunderground v.1.15,2013-04-03 00:42:00,
2013-04-02 20:47:00,56.9,51.5,30.09,SSE,156,0.0,1.0,82,0.00,,,0.00,Wunderground v.1.15,2013-04-03 00:47:00,
2013-04-02 20:52:00,56.7,51.3,30.09,SSE,156,0.0,0.0,82,0.00,,,0.00,Wunderground v.1.15,2013-04-03 00:52:00,
2013-04-02 20:57:00,56.7,51.6,30.09,SSE,156,0.0,1.0,83,0.00,,,0.00,Wunderground v.1.15,2013-04-03 00:57:00,
2013-04-02 21:02:00,56.6,51.5,30.09,SSE,156,0.0,0.0,83,0.00,,,0.00,Wunderground v.1.15,2013-04-03 01:02:00,
2013-04-02 21:08:00,56.5,51.7,30.09,SSE,156,0.0,0.0,84,0.00,,,0.00,Wunderground v.1.15,2013-04-03 01:08:00,
2013-04-02 21:13:00,56.3,51.5,30.09,SSE,156,0.0,0.0,84,0.00,,,0.00,Wunderground v.1.15,2013-04-03 01:13:00,
2013-04-02 21:19:00,56.2,51.7,30.10,SSE,156,0.0,0.0,85,0.00,,,0.00,Wunderground v.1.15,2013-04-03 01:19:00,
2013-04-02 21:24:00,56.0,51.6,30.10,SSE,156,0.0,0.0,85,0.00,,,0.00,Wunderground v.1.15,2013-04-03 01:24:00,
2013-04-02 21:29:00,56.0,51.6,30.10,SSE,156,0.0,0.0,85,0.00,,,0.00,Wunderground v.1.15,2013-04-03 01:29:00,
2013-04-02 21:34:00,55.9,51.8,30.10,SSE,156,0.0,0.0,86,0.00,,,0.00,Wunderground v.1.15,2013-04-03 01:34:00,
2013-04-02 21:39:00,55.7,51.6,30.10,SSE,156,0.0,0.0,86,0.00,,,0.00,Wunderground v.1.15,2013-04-03 01:39:00,
2013-04-02 21:44:00,55.6,51.8,30.10,SSE,156,0.0,0.0,87,0.00,,,0.00,Wunderground v.1.15,2013-04-03 01:44:00,
2013-04-02 21:49:00,55.6,51.8,30.10,SSE,156,0.0,0.0,87,0.00,,,0.00,Wunderground v.1.15,2013-04-03 01:49:00,
2013-04-02 21:54:00,55.6,52.1,30.10,SSE,156,0.0,0.0,88,0.00,,,0.00,Wunderground v.1.15,2013-04-03 01:54:00,
2013-04-02 21:59:00,55.6,52.4,30.10,SSE,156,0.0,0.0,89,0.00,,,0.00,Wunderground v.1.15,2013-04-03 01:59:00,
2013-04-02 22:04:00,55.6,52.4,30.10,SSE,156,0.0,0.0,89,0.00,,,0.00,Wunderground v.1.15,2013-04-03 02:04:00,
2013-04-02 22:09:00,55.6,52.4,30.10,SSE,156,0.0,0.0,89,0.00,,,0.00,Wunderground v.1.15,2013-04-03 02:09:00,
2013-04-02 22:14:00,55.6,52.4,30.10,SSE,156,0.0,0.0,89,0.00,,,0.00,Wunderground v.1.15,2013-04-03 02:14:00,
2013-04-02 22:20:00,55.6,52.4,30.10,SSE,156,0.0,0.0,89,0.00,,,0.00,Wunderground v.1.15,2013-04-03 02:20:00,
2013-04-02 22:25:00,55.6,52.7,30.10,SSE,156,0.0,0.0,90,0.00,,,0.00,Wunderground v.1.15,2013-04-03 02:25:00,
2013-04-02 22:30:00,55.6,52.7,30.10,SSE,156,0.0,0.0,90,0.00,,,0.00,Wunderground v.1.15,2013-04-03 02:30:00,
2013-04-02 22:35:00,55.6,52.4,30.10,SSE,156,0.0,0.0,89,0.00,,,0.00,Wunderground v.1.15,2013-04-03 02:35:00,
2013-04-02 22:40:00,55.4,52.5,30.10,SSE,156,0.0,0.0,90,0.00,,,0.00,Wunderground v.1.15,2013-04-03 02:40:00,
2013-04-02 22:45:00,55.4,52.5,30.10,SSE,156,0.0,0.0,90,0.00,,,0.00,Wunderground v.1.15,2013-04-03 02:45:00,
2013-04-02 22:50:00,55.6,53.0,30.10,SSE,156,0.0,0.0,91,0.00,,,0.00,Wunderground v.1.15,2013-04-03 02:50:00,
2013-04-02 22:55:00,55.6,53.0,30.10,SSE,156,0.0,0.0,91,0.00,,,0.00,Wunderground v.1.15,2013-04-03 02:55:00,
2013-04-02 23:00:00,55.6,53.0,30.10,SSE,156,0.0,0.0,91,0.00,,,0.00,Wunderground v.1.15,2013-04-03 03:00:00,
2013-04-02 23:05:00,55.6,53.0,30.10,SSE,156,0.0,0.0,91,0.00,,,0.00,Wunderground v.1.15,2013-04-03 03:05:00,
2013-04-02 23:10:00,55.6,53.3,30.10,SSE,156,0.0,0.0,92,0.00,,,0.00,Wunderground v.1.15,2013-04-03 03:10:00,
2013-04-02 23:15:00,55.4,53.1,30.10,SSE,156,0.0,0.0,92,0.00,,,0.00,Wunderground v.1.15,2013-04-03 03:15:00,
2013-04-02 23:20:00,55.4,53.1,30.10,SSE,156,0.0,0.0,92,0.00,,,0.00,Wunderground v.1.15,2013-04-03 03:20:00,
2013-04-02 23:25:00,55.3,53.0,30.10,SSE,156,0.0,0.0,92,0.00,,,0.00,Wunderground v.1.15,2013-04-03 03:25:00,
2013-04-02 23:30:00,55.3,53.0,30.10,SSE,156,0.0,0.0,92,0.00,,,0.00,Wunderground v.1.15,2013-04-03 03:30:00,
2013-04-02 23:35:00,55.3,53.0,30.10,SSE,156,0.0,0.0,92,0.00,,,0.00,Wunderground v.1.15,2013-04-03 03:35:00,
2013-04-02 23:40:00,55.1,52.8,30.10,SSE,156,0.0,0.0,92,0.00,,,0.00,Wunderground v.1.15,2013-04-03 03:40:00,
2013-04-02 23:45:00,55.1,52.8,30.10,SSE,156,0.0,0.0,92,0.00,,,0.00,Wunderground v.1.15,2013-04-03 03:45:00,
2013-04-02 23:50:00,55.0,52.7,30.10,SSE,156,0.0,0.0,92,0.00,,,0.00,Wunderground v.1.15,2013-04-03 03:50:00,
2013-04-02 23:55:00,55.0,52.7,30.10,SSE,156,0.0,0.0,92,0.00,,,0.00,Wunderground v.1.15,2013-04-03 03:55:00,